logo
Search for airport 
image banner adimage banner adimage banner ad
image banner ad

BIKF - Keflavik

Located in Keflavik, Iceland

ICAO - BIKF, IATA - KEF

Data provided by Airmate  

General information

Coordinates: N63°59'6" W22°36'20"
Elevation is 170 feet MSL.
 
View others Airports in Southern Peninsula

Operational data

Special qualification required
Current time UTC:
Current local time:
Weather
METAR: BIKF 241930Z 13007KT 9999 FEW026 BKN044 09/03 Q1016
TAF: TAF BIKF 241932Z 2421/2521 12005KT 9999 BKN030 TX10/2515Z TN03/2506Z BECMG 2507/2509 35010KT SCT045
View NOTAMs / SUP AIP / TFR affecting this airport [VIEW]
Communications frequencies: [VIEW]

Runways:

RWY identifierQFULength (ft)Width (ft)SurfaceLDA (ft)
0110020197ASPH
19180°10020197ASPH
1090°10056197ASPH
28270°10056197ASPH

Airport contact information

Address: Keflavik Iceland

Satellite view of BIKF